Tracking 29892 objects as of 21-Nov-2024
HD Live streaming from Space Station
objects crossing your sky now

ELEKTRO-L 3

Track ELEKTRO-L 3 now!


NORAD ID: 44903
Int'l Code: 2019-095A
Perigee: 35,784.3 km
Apogee: 35,803.5 km
Inclination: 0.1 °
Period: 1,436.1 minutes
Semi major axis: 42164 km
RCS: Unknown
Launch date: December 24, 2019
Source: Commonwealth of Independent States (former USSR) (CIS)
Launch site: TYURATAM MISSILE AND SPACE COMPLEX (TTMTR)
Your satellite tracking list
Your tracking list is empty




NASA's NSSDC Master Catalog

Two Line Element Set (TLE):
1 44903U 19095A   24325.83404669 -.00000096  00000-0  00000-0 0  9996
2 44903   0.1008  68.5507 0002276 199.7574 168.3312  1.00271303 17943
Source of the keplerian elements: AFSPC